Temperature
15 14 14 14 13 13 13 13 12 12 12 12 12 12 12 12 11 11 10 10 9 9 9 9 8 8 8 8 8 9 9 9 9 9 9 9 10 10 10 10 10 10 10
15 14 14 13 13 13 13 12 12 12 12 12 12 12 12 12 11 11 10 10 9 9 9 8 8 8 8 8 8 8 8 8 8 9 8 8 8 9 8 8 8 8 9
15 14 14 13 13 13 12 12 12 12 12 12 12 12 12 11 11 10 10 9 9 9 8 8 8 8 8 8 7 7 7 7 8 8 8 8 8 7 7 7 7 7 7
15 14 14 13 13 12 12 12 12 12 11 11 12 12 12 11 11 10 10 9 9 8 8 8 8 8 8 7 7 7 7 7 7 7 7 7 7 6 6 6 6 6 6
15 14 14 13 13 12 12 12 12 11 11 11 11 11 11 11 11 10 10 9 8 8 8 8 7 7 7 7 7 7 7 7 6 6 6 6 5 5 5 5 5 5 5
15 15 14 13 12 12 12 11 11 11 11 11 11 11 11 11 11 10 10 9 8 8 8 7 7 7 7 7 7 7 6 6 6 5 5 4 4 4 4 3 3 4 4
15 15 14 13 13 12 12 11 11 11 11 11 11 11 11 11 11 10 10 9 9 8 8 7 7 7 7 6 6 6 6 6 5 4 4 3 3 3 3 3 3 3 3
16 15 14 14 13 12 12 11 11 11 11 11 11 11 11 10 11 10 10 9 9 8 8 7 7 7 6 6 6 5 5 5 5 4 3 2 2 2 2 2 2 2 2
16 15 15 15 14 13 12 12 11 11 11 11 11 11 11 11 11 11 10 10 9 8 8 7 7 6 6 5 5 5 5 5 4 3 2 2 1 1 1 2 2 2 2
16 16 15 15 15 14 13 12 12 12 11 11 11 11 11 11 11 10 10 9 9 8 7 7 6 6 5 5 5 4 4 4 3 2 1 1 1 1 1 1 1 1 1
16 16 15 15 15 14 14 13 12 12 11 11 11 11 11 10 10 10 10 9 9 8 7 6 6 5 5 4 4 4 3 3 3 2 1 1 0 -0 0 0 0 0 0
15 15 15 15 15 15 14 14 13 12 11 11 11 11 10 10 10 10 9 9 8 7 7 6 5 5 4 4 3 3 3 2 2 2 1 0 -0 -1 -1 -1 -1 -1 -1
15 15 15 15 15 15 14 14 13 12 11 11 10 10 9 9 9 9 8 8 7 6 6 5 5 4 4 3 2 2 1 1 1 1 1 -1 -1 -1 -2 -2 -2 -2 -2
15 15 15 15 15 14 14 13 12 11 11 10 9 9 8 8 8 8 7 7 6 5 5 5 4 3 3 2 1 0 0 0 0 0 -0 -1 -1 -1 -2 -3 -3 -3 -3
14 14 14 14 14 14 13 12 11 11 10 9 8 7 7 7 6 6 5 5 4 3 3 3 3 2 1 1 0 -0 -1 -1 -1 -1 -1 -1 -2 -2 -3 -4 -4 -4 -4
13 13 13 13 13 13 12 11 10 10 9 8 7 6 5 5 5 4 4 3 2 2 1 1 1 0 -0 -0 -0 -1 -1 -2 -2 -2 -2 -2 -3 -3 -4 -4 -5 -5 -5
11 11 11 11 11 11 10 10 9 8 7 6 5 5 4 3 3 3 2 2 1 0 -0 -0 -1 -1 -1 -1 -1 -2 -2 -3 -3 -3 -3 -3 -4 -4 -5 -5 -5 -5 -5
10 9 10 10 9 9 9 8 7 6 5 4 4 3 3 3 2 2 1 0 -0 -1 -2 -2 -2 -2 -2 -3 -3 -3 -4 -4 -4 -4 -4 -4 -4 -5 -5 -5 -5 -6 -6
8 8 9 9 8 8 7 6 5 4 3 3 3 2 2 2 1 1 -0 -1 -2 -2 -3 -3 -3 -4 -4 -4 -4 -5 -5 -5 -5 -5 -4 -4 -5 -5 -5 -6 -6 -6 -6
8 8 8 7 7 6 5 4 3 3 2 2 2 2 2 1 0 -0 -1 -2 -2 -3 -4 -4 -5 -6 -6 -6 -6 -6 -7 -6 -6 -5 -5 -5 -5 -5 -5 -5 -5 -5 -5
6 6 6 5 4 3 3 2 2 2 2 2 1 1 1 -0 -1 -2 -2 -3 -4 -4 -5 -6 -6 -7 -7 -7 -7 -8 -8 -8 -7 -6 -5 -5 -5 -5 -5 -5 -5 -5 -5
4 4 3 3 2 1 1 1 1 1 1 1 1 0 -1 -2 -2 -3 -3 -4 -5 -6 -6 -7 -8 -8 -8 -8 -8 -9 -9 -9 -9 -8 -7 -7 -6 -6 -5 -5 -5 -5 -5
1 1 1 1 1 0 0 1 1 1 1 0 -1 -1 -2 -3 -3 -4 -4 -4 -5 -6 -7 -8 -8 -8 -8 -8 -9 -9 -9 -9 -9 -8 -8 -8 -6 -6 -6 -6 -5 -5 -6
-0 -0 -0 -0 0 0 0 0 0 -0 -1 -2 -2 -3 -3 -3 -4 -4 -5 -6 -6 -7 -7 -8 -8 -8 -9 -9 -9 -9 -9 -9 -9 -8 -8 -8 -6 -6 -6 -6 -6 -5 -5
-0 -0 -0 -0 -0 -0 -1 -1 -1 -2 -2 -3 -3 -4 -4 -4 -5 -6 -8 -8 -8 -8 -8 -8 -8 -8 -8 -8 -9 -9 -9 -9 -9 -8 -8 -8 -7 -7 -7 -6 -5 -5 -6
-0 -0 -0 -1 -1 -1 -2 -2 -3 -3 -3 -4 -4 -5 -5 -6 -7 -8 -9 -9 -8 -8 -8 -8 -7 -7 -8 -8 -8 -8 -8 -9 -9 -9 -8 -9 -8 -9 -9 -7 -6 -6 -6
Wind_Speed
6 7 7 8 8 8 8 7 8 8 7 7 7 8 8 8 9 10 10 11 11 9 8 8 7 8 8 8 8 8 9 9 9 9 9 9 9 10 10 10 10 10 10
10 7 6 7 8 10 10 9 9 7 6 6 6 6 7 7 8 9 9 10 10 9 8 7 7 7 7 7 8 8 8 8 8 8 8 8 9 9 9 9 9 10 10
13 10 7 6 9 11 11 10 8 7 5 5 4 5 5 6 7 8 8 9 9 8 7 7 6 7 7 7 7 7 7 7 7 7 7 8 8 8 8 9 9 10 10
17 13 8 7 12 13 11 6 5 5 4 4 4 3 3 5 5 6 6 7 7 7 6 6 5 5 5 6 7 7 7 6 6 6 6 7 7 8 8 9 10 11 11
19 15 9 9 13 10 7 7 4 4 4 4 4 3 2 2 4 5 5 6 6 5 4 4 4 3 3 4 5 7 7 7 6 6 6 6 7 8 8 9 10 12 12
20 17 10 11 13 8 7 7 6 3 4 5 4 3 2 1 3 4 5 5 5 5 4 3 3 2 2 3 5 7 8 8 8 7 7 8 9 9 10 11 12 13 14
20 16 10 10 10 11 11 10 6 5 3 4 4 2 1 1 2 2 4 4 5 5 5 4 3 1 1 3 5 7 8 9 9 9 9 10 11 12 13 14 14 15 16
19 17 14 13 12 10 11 11 7 5 4 5 5 3 2 2 2 1 2 3 4 5 5 5 4 2 1 3 5 7 8 9 10 11 12 13 14 14 15 16 17 17 17
18 17 15 14 14 14 14 14 12 10 6 4 3 5 5 6 3 1 1 2 3 3 4 5 4 2 2 2 3 5 7 8 10 12 14 15 16 17 18 19 19 20 19
17 18 16 15 16 14 14 15 13 8 8 6 3 1 2 4 4 3 2 1 2 3 3 3 4 4 4 4 4 5 7 9 11 14 16 17 19 20 21 21 22 22 21
15 16 16 15 16 15 15 14 13 10 7 8 6 4 3 2 2 4 4 3 1 2 2 2 4 5 5 5 5 6 8 10 13 16 18 20 22 23 24 24 23 23 22
12 15 14 15 15 13 14 14 14 14 9 8 7 5 5 4 4 4 3 3 3 1 1 1 4 6 6 4 4 7 10 12 15 18 20 22 24 24 24 24 24 24 24
12 16 16 15 13 12 13 11 12 12 10 10 8 4 3 3 3 4 4 3 2 0 2 1 3 6 6 2 4 9 11 15 18 20 22 24 24 24 24 24 24 24 25
14 14 16 14 13 12 12 10 9 8 8 8 8 7 6 4 3 3 4 4 2 1 2 3 1 4 5 2 6 11 11 15 19 22 23 23 23 23 23 24 24 24 25
7 10 12 11 10 10 11 11 8 9 9 8 9 9 6 5 5 5 4 3 4 2 3 3 2 2 6 5 9 11 10 16 21 22 23 23 23 23 23 24 25 25 25
6 9 10 10 11 11 12 11 10 11 11 10 8 10 8 5 5 5 4 3 2 3 3 3 4 3 4 7 12 13 14 19 20 21 22 23 23 24 24 25 25 25 26
8 10 11 11 12 12 12 12 12 13 14 11 10 10 9 7 5 4 3 2 1 2 5 4 3 3 3 6 11 14 15 15 16 20 24 25 25 24 24 25 25 26 26
9 11 12 13 13 13 13 14 14 13 13 12 11 10 9 6 6 4 2 2 2 4 5 7 4 3 5 6 7 8 12 14 15 21 24 24 24 24 24 24 25 25 26
11 11 12 13 13 13 14 14 14 13 12 11 10 9 7 6 4 3 3 3 3 4 5 6 6 4 5 6 6 7 9 11 16 19 21 22 23 23 23 24 25 26 27
12 13 13 14 14 14 15 14 14 14 12 10 9 8 6 4 3 3 3 5 5 5 5 6 6 5 5 6 5 6 9 6 9 14 19 20 21 22 24 26 27 28 28
14 14 15 15 14 13 13 14 13 12 11 10 8 6 4 2 3 4 4 5 5 5 5 5 6 5 5 5 6 6 11 9 9 10 9 8 11 12 18 24 26 27 28
14 15 15 15 13 12 18 18 14 10 9 8 6 4 2 1 1 3 6 7 7 5 5 5 5 7 7 7 7 9 10 11 8 4 5 9 8 12 11 16 24 28 29
14 14 14 14 14 16 19 18 16 10 8 6 5 3 2 1 2 2 6 8 9 12 12 8 7 8 8 9 9 11 11 12 12 7 9 15 9 13 11 20 27 29 30
11 12 12 12 12 14 17 17 15 9 7 5 4 3 1 1 3 6 5 5 6 7 9 7 8 10 10 10 11 12 11 10 9 8 7 11 12 12 13 13 26 30 31
11 10 10 10 10 10 13 12 11 6 5 4 3 1 1 3 8 11 5 4 6 6 11 16 18 18 20 21 18 9 7 9 12 9 5 6 6 7 9 12 18 24 24
10 10 10 8 8 5 7 9 9 4 4 2 1 1 4 7 10 11 5 4 6 7 8 9 10 13 13 15 17 8 5 7 8 7 4 4 4 5 7 5 7 10 15
Wind_Direction
178 178 177 173 168 162 155 144 135 129 121 118 123 127 125 120 116 110 107 111 114 115 110 100 89 78 70 63 57 51 45 40 35 31 28 27 26 23 19 16 12 8 3
184 180 177 177 176 173 167 157 147 138 128 125 120 129 134 132 128 122 117 116 118 120 116 106 93 78 68 59 52 45 39 33 29 24 21 19 18 15 11 8 4 359 353
189 186 184 184 183 174 159 145 134 127 121 119 115 128 138 145 142 135 130 125 124 124 124 117 103 86 68 54 43 35 28 22 17 14 11 9 6 4 2 358 354 348 342
194 190 190 191 181 169 158 148 140 127 130 134 134 132 142 153 157 154 147 142 137 133 130 127 115 95 68 47 32 21 13 7 1 356 354 353 350 347 346 343 340 335 330
197 194 194 189 175 168 163 161 151 141 151 151 141 123 133 158 173 173 173 169 163 157 149 140 123 101 59 27 11 2 356 349 340 332 330 331 330 327 328 327 327 324 320
198 194 191 183 175 170 169 165 151 128 138 146 124 100 86 169 179 188 194 191 193 189 181 165 150 105 36 6 353 343 336 330 323 314 311 310 311 311 312 313 314 314 312
196 193 189 181 180 182 180 168 146 139 135 144 116 96 36 44 190 201 197 194 201 199 191 185 173 150 11 355 343 328 321 317 312 306 301 300 300 301 302 303 305 305 305
195 194 189 188 186 181 176 175 158 147 148 170 146 136 197 291 261 196 197 197 195 182 177 173 162 148 354 334 331 327 320 312 307 303 299 296 296 296 296 298 299 298 298
197 196 193 188 187 186 188 187 180 165 162 188 193 155 162 210 210 248 233 197 185 172 168 160 149 134 99 44 5 344 333 322 310 304 301 298 297 296 295 296 296 296 296
199 198 193 191 189 191 191 191 186 175 155 166 188 185 142 145 156 188 255 240 198 185 178 160 144 132 112 86 46 7 350 334 319 312 308 304 301 298 297 297 296 296 295
201 199 195 193 193 195 194 188 185 183 174 166 163 155 141 94 131 153 191 209 219 207 198 180 166 150 127 95 55 12 353 337 324 315 308 304 300 298 297 296 296 296 295
201 200 196 196 196 194 192 189 186 185 184 169 164 162 159 161 177 164 161 171 196 228 253 217 188 170 151 109 47 2 347 333 322 313 306 301 299 297 297 297 296 294 292
205 202 198 198 197 194 189 182 180 183 176 167 163 153 135 129 136 138 133 139 152 310 316 259 192 181 170 136 6 345 342 326 317 309 304 300 299 299 297 295 293 291 290
211 201 198 196 192 185 179 170 168 165 154 145 137 129 121 111 104 113 129 133 127 332 302 268 219 201 194 244 327 334 328 318 311 305 302 300 299 297 295 292 290 289 289
199 188 187 181 172 165 161 156 155 145 135 128 125 119 110 102 91 85 94 118 143 189 257 264 256 220 223 265 309 317 308 309 307 305 302 299 296 294 292 290 289 287 286
169 162 161 155 150 147 145 141 137 132 125 121 121 114 106 98 89 87 93 89 110 168 234 245 244 245 260 287 300 308 303 305 307 304 299 297 295 293 291 288 287 286 285
141 144 144 140 138 138 137 134 132 130 124 120 116 112 109 106 104 100 100 108 141 176 242 265 251 262 269 277 290 294 295 290 287 298 299 296 294 292 290 289 288 286 285
130 133 133 132 132 131 131 130 128 124 122 119 115 113 115 115 115 122 133 171 203 211 234 267 265 261 259 269 273 279 291 292 289 296 296 295 295 293 292 290 288 287 285
119 121 122 123 122 121 119 117 116 113 111 113 114 116 119 122 133 149 174 202 222 231 226 250 268 252 259 266 275 277 279 282 288 292 294 295 294 293 292 292 292 291 289
106 107 107 109 111 111 111 111 110 109 108 107 106 109 115 125 151 181 209 222 228 236 238 248 263 263 259 261 264 281 293 278 284 289 287 287 288 291 292 293 292 290 287
96 100 101 101 102 103 107 109 108 110 110 107 102 100 106 139 209 222 229 225 222 234 245 253 265 271 272 275 277 280 293 293 281 272 274 272 276 278 282 285 287 286 284
94 97 100 101 100 103 110 109 109 105 103 102 99 96 110 152 358 330 306 289 268 250 244 244 261 270 278 274 277 283 289 296 295 257 269 284 277 282 281 278 283 285 285
92 93 96 99 101 107 108 105 102 101 99 103 111 116 107 74 31 303 299 300 296 293 289 284 281 278 280 278 278 281 278 279 282 279 290 291 281 281 280 281 285 286 287
89 90 91 93 95 101 101 101 102 102 106 112 116 123 125 304 303 292 263 261 261 270 281 281 262 265 268 269 265 275 284 288 280 274 267 281 286 281 281 277 283 285 286
86 85 85 86 89 96 105 110 112 113 105 101 102 117 280 281 302 309 304 276 275 274 291 294 294 293 296 300 302 300 295 295 295 288 258 263 280 284 280 275 275 280 283
84 83 78 74 80 82 108 115 119 106 102 102 97 316 317 314 311 315 307 283 284 280 278 288 295 297 295 294 298 290 276 281 287 290 249 247 275 302 295 259 252 267 278
Height
1539 1542 1543 1545 1546 1548 1549 1550 1551 1552 1553 1553 1553 1553 1553 1553 1553 1553 1553 1552 1552 1551 1551 1550 1550 1550 1550 1549 1549 1548 1548 1547 1547 1546 1546 1545 1545 1545 1544 1544 1544 1544 1544
1537 1539 1541 1542 1544 1545 1547 1548 1549 1550 1551 1551 1552 1552 1551 1551 1551 1551 1551 1551 1550 1550 1550 1549 1549 1549 1549 1548 1547 1547 1546 1546 1545 1545 1544 1543 1543 1542 1542 1541 1541 1541 1540
1533 1535 1537 1539 1541 1542 1544 1545 1546 1547 1548 1549 1549 1549 1549 1549 1549 1549 1549 1549 1549 1549 1548 1548 1548 1547 1547 1547 1546 1545 1544 1544 1543 1542 1542 1541 1540 1539 1539 1538 1538 1537 1537
1529 1531 1533 1535 1537 1539 1541 1542 1543 1544 1545 1546 1547 1547 1547 1547 1547 1547 1547 1547 1547 1547 1546 1546 1546 1545 1545 1545 1544 1543 1542 1541 1541 1540 1539 1538 1537 1537 1536 1535 1535 1534 1534
1524 1526 1528 1531 1533 1535 1537 1538 1540 1541 1542 1543 1544 1544 1544 1544 1544 1544 1544 1545 1545 1545 1544 1544 1544 1543 1543 1542 1542 1541 1540 1539 1538 1537 1536 1535 1534 1534 1533 1532 1531 1530 1530
1518 1521 1523 1526 1528 1530 1532 1534 1536 1538 1539 1540 1541 1541 1541 1541 1541 1541 1542 1542 1542 1542 1542 1542 1541 1541 1540 1540 1539 1538 1537 1536 1535 1534 1533 1532 1531 1530 1529 1529 1528 1527 1526
1513 1515 1517 1520 1522 1524 1526 1529 1531 1533 1535 1536 1537 1538 1538 1538 1538 1538 1538 1539 1539 1539 1539 1539 1538 1538 1537 1536 1536 1535 1533 1532 1531 1530 1529 1528 1528 1527 1526 1525 1524 1523 1522
1506 1508 1511 1513 1516 1518 1521 1523 1526 1528 1530 1532 1533 1534 1534 1535 1533 1534 1534 1535 1535 1535 1535 1535 1535 1534 1533 1533 1532 1530 1529 1528 1527 1526 1525 1525 1524 1523 1522 1521 1519 1518 1517
1499 1502 1504 1506 1509 1512 1514 1516 1519 1522 1524 1526 1528 1529 1529 1528 1529 1529 1530 1531 1531 1531 1531 1531 1530 1530 1529 1528 1527 1526 1524 1523 1522 1521 1521 1520 1520 1518 1517 1516 1514 1513 1511
1491 1494 1497 1499 1502 1504 1506 1509 1512 1514 1517 1519 1521 1523 1524 1524 1525 1524 1526 1526 1526 1527 1527 1526 1526 1525 1524 1523 1522 1521 1519 1518 1517 1516 1515 1514 1513 1512 1510 1509 1507 1506 1504
1482 1486 1489 1491 1494 1496 1499 1501 1504 1507 1509 1512 1514 1516 1517 1519 1519 1520 1520 1521 1522 1522 1522 1522 1521 1521 1520 1519 1517 1515 1513 1512 1510 1509 1507 1506 1505 1504 1503 1501 1499 1497 1496
1473 1476 1480 1483 1486 1488 1491 1493 1496 1500 1502 1505 1508 1509 1511 1512 1513 1514 1515 1515 1516 1517 1517 1517 1517 1516 1515 1513 1511 1509 1507 1506 1503 1501 1499 1498 1496 1495 1493 1491 1489 1488 1486
1464 1467 1471 1474 1477 1480 1483 1486 1489 1492 1495 1498 1500 1502 1505 1507 1508 1508 1509 1510 1510 1511 1512 1512 1512 1511 1509 1508 1505 1502 1500 1498 1496 1493 1491 1489 1487 1485 1482 1480 1479 1477 1476
1455 1459 1462 1465 1468 1472 1475 1478 1481 1485 1488 1490 1493 1495 1498 1500 1502 1503 1504 1505 1505 1505 1506 1506 1506 1505 1503 1501 1499 1495 1493 1490 1487 1484 1482 1479 1477 1474 1472 1470 1469 1468 1467
1448 1451 1453 1457 1460 1463 1466 1470 1473 1477 1480 1483 1485 1488 1491 1493 1495 1496 1498 1499 1501 1500 1499 1500 1500 1498 1497 1494 1492 1488 1484 1481 1478 1475 1473 1470 1467 1465 1463 1461 1460 1458 1457
1440 1443 1445 1449 1452 1455 1459 1463 1467 1470 1473 1476 1479 1481 1484 1487 1489 1490 1492 1494 1495 1495 1494 1493 1493 1493 1490 1488 1485 1480 1476 1473 1469 1466 1464 1461 1459 1456 1454 1452 1451 1449 1448
1433 1436 1439 1442 1445 1449 1453 1457 1461 1464 1467 1470 1473 1476 1478 1481 1484 1486 1486 1487 1488 1489 1487 1486 1486 1485 1483 1480 1477 1473 1469 1465 1461 1459 1456 1453 1450 1447 1445 1443 1442 1440 1439
1427 1430 1434 1437 1441 1444 1448 1452 1455 1458 1462 1465 1468 1472 1475 1477 1479 1481 1482 1482 1483 1482 1481 1479 1478 1477 1475 1472 1468 1465 1461 1457 1453 1451 1448 1445 1442 1439 1437 1435 1433 1431 1429
1424 1426 1430 1433 1437 1440 1444 1447 1451 1455 1459 1463 1466 1469 1471 1473 1475 1476 1476 1476 1476 1476 1475 1473 1471 1470 1467 1465 1460 1456 1453 1449 1446 1443 1440 1437 1434 1431 1429 1427 1425 1422 1420
1421 1424 1427 1430 1434 1437 1441 1445 1449 1454 1458 1461 1464 1466 1468 1469 1470 1470 1470 1470 1470 1469 1469 1467 1465 1462 1459 1456 1453 1448 1443 1440 1437 1435 1432 1429 1426 1424 1422 1419 1416 1412 1410
1420 1423 1425 1429 1433 1437 1441 1445 1449 1453 1457 1460 1462 1463 1464 1465 1465 1465 1465 1465 1464 1464 1463 1461 1458 1455 1452 1449 1446 1442 1437 1432 1428 1427 1423 1420 1417 1414 1412 1409 1406 1403 1400
1421 1423 1426 1430 1434 1438 1442 1447 1451 1454 1456 1458 1459 1460 1460 1460 1461 1461 1460 1460 1460 1459 1457 1455 1451 1448 1445 1443 1440 1436 1432 1426 1421 1419 1416 1411 1410 1405 1402 1400 1397 1393 1390
1424 1427 1430 1433 1437 1441 1445 1448 1451 1453 1454 1455 1456 1457 1457 1457 1457 1456 1455 1454 1454 1453 1452 1450 1446 1442 1439 1437 1434 1429 1426 1421 1417 1414 1410 1401 1400 1396 1394 1390 1388 1384 1381
1428 1431 1434 1438 1441 1444 1447 1448 1450 1451 1452 1453 1454 1454 1455 1454 1453 1451 1449 1448 1447 1446 1445 1442 1439 1436 1433 1431 1428 1425 1420 1415 1410 1407 1404 1395 1390 1387 1383 1380 1378 1375 1372
1434 1436 1439 1442 1444 1446 1447 1448 1449 1450 1450 1451 1452 1452 1451 1450 1448 1446 1445 1443 1442 1440 1439 1436 1433 1431 1428 1426 1423 1418 1413 1408 1401 1398 1397 1390 1382 1377 1371 1368 1367 1365 1362
1440 1441 1443 1444 1446 1447 1448 1448 1449 1449 1449 1450 1449 1449 1447 1445 1444 1442 1441 1439 1436 1434 1432 1429 1427 1425 1422 1419 1416 1412 1408 1402 1396 1389 1387 1383 1376 1371 1360 1353 1354 1353 1351